Tracking 19832 objects as of 25-Aug-2019
HD Live streaming from Space Station
objects crossing your sky now

FENGYUN 1C DEB


FENGYUN 1C DEB is no longer on orbit


NORAD ID: 33626
Int'l Code: 1999-025DDK
Perigee: N/A
Apogee: N/A
Inclination: N/A
Period: N/A
Semi major axis: N/A
RCS: N/A
Launch date: May 10, 1999
Source: People's Republic of China (PRC)
Launch site: Taiyaun Space Center, China (TSC)
Decay date: 2014-10-17

Note: This is SATELLITE DEBRIS
aabbcc
Your satellite tracking list
Your tracking list is empty




NASA's NSSDC Master Catalog

Two Line Element Set (TLE):
1 33626U 99025DDK 14147.23401561  .00131232  00000-0  62050-2 0  9991
2 33626 098.4018 165.4381 0072111 066.5902 294.6742 15.16512566342786
Source of the keplerian elements: AFSPC